GPS BIII-7 (PRN 01)

Last updated on Mon Oct 27 2025 00:03:24 GMT+0000 (Coordinated Universal Time)

1 62339U 24242A 25299.51530042 -.00000077 00000+0 00000+0 0 9997 2 62339 54.9373 343.6552 0009694 342.0382 19.5735 2.00566970 6577
UTC large
Height (km)
Speed (km/s)
/
Latitude / Longitude
Inclination (degrees)
Orbital Period (minutes)
Azimuth
Elevation
Range (km)
Doppler Factor

Next 0 passes for location: London (51.5072 / 0.1276)

Sorry there are no passes over London.